Overview Statistics Trail Chart Weather Telemetry Raw packets
 

This is the latest recevied weather packets stored in our database for station/object N7ZEF. If no packets are shown the sender has not sent any weather packets the latest 10 day(s).

<< 28 29 30 31 32 33 34 >>
Time Temp. Humidity Pressure Rain* Wind** Luminosity Snow
1777746426 16.11° C 19% 1024.9 hPa 0 mm - - -
1777745824 16.11° C 19% 1025.1 hPa 0 mm - - -
1777745223 15.56° C 19% 1025.3 hPa 0 mm - - -
1777744622 15.56° C 21% 1025.4 hPa 0 mm - - -
1777744020 15.56° C 21% 1025.5 hPa 0 mm - - -
1777743419 15° C 22% 1025.6 hPa 0 mm - - -
1777742817 14.44° C 22% 1025.6 hPa 0 mm - - -
1777742216 15° C 22% 1025.8 hPa 0 mm - - -
1777741615 15° C 24% 1025.8 hPa 0 mm - - -
1777741013 14.44° C 23% 1025.8 hPa 0 mm - - -
1777740412 14.44° C 23% 1025.9 hPa 0 mm - - -
1777739811 13.89° C 22% 1025.9 hPa 0 mm - - -
1777739209 13.89° C 26% 1026 hPa 0 mm - - -
1777738608 13.33° C 27% 1025.9 hPa 0 mm - - -
1777738007 12.78° C 30% 1026 hPa 0 mm - - -
1777737405 12.22° C 33% 1026.2 hPa 0 mm - - -
1777736804 11.11° C 38% 1026.2 hPa 0 mm - - -
1777736202 10° C 39% 1026.3 hPa 0 mm - - -
1777735601 9.44° C 40% 1026.4 hPa 0 mm - - -
1777735006 8.33° C 46% 1026.4 hPa 0 mm - - -
1777734398 7.78° C 50% 1026.5 hPa 0 mm - - -
1777733797 6.67° C 52% 1026.7 hPa 0 mm - - -
1777733195 5.56° C 55% 1026.8 hPa 0 mm - - -
1777732594 4.44° C 59% 1026.8 hPa 0 mm - - -
1777731993 3.33° C 63% 1026.7 hPa 0 mm - - -

* Rain latest hour (hover to see other rain measurements)
** Current wind speed in m/s (hover to see current wind gust speed)